HS6PNA-2 Weather Reports


time (UTC)temp
F
wind
direction
speed
knots
gust
knots
rain 1hr
in
rain 24hr
in
rain mn
in
humidity
%
barometer
mb
20260508064239 88 0 0.0 0.0 0.00 0.00 0.00 40 1002.0
20260508062715 88 0 0.0 0.0 0.00 0.00 0.00 39 1001.0
20260508061150 87 0 0.0 0.0 0.00 0.00 0.00 40 1001.0
20260508055626 88 0 0.0 0.0 0.00 0.00 0.00 39 1001.0
20260508054101 88 0 0.0 0.0 0.00 0.00 0.00 40 1002.0
20260508052537 87 0 0.0 0.0 0.00 0.00 0.00 41 1003.0
20260508051012 88 0 0.0 0.0 0.00 0.00 0.00 40 1003.0
20260508045448 87 0 0.0 0.0 0.00 0.00 0.00 39 1003.0
20260508043923 89 0 0.0 0.0 0.00 0.00 0.00 37 1004.0
20260508042359 90 0 0.0 0.0 0.00 0.00 0.00 37 1004.0
20260508040835 91 0 0.0 0.0 0.00 0.00 0.00 36 1005.0
20260508035310 91 0 0.0 0.0 0.00 0.00 0.00 40 1005.0
20260508033746 92 0 0.0 0.0 0.00 0.00 0.00 44 1005.0
20260508032221 96 0 0.0 0.0 0.00 0.00 0.00 49 1005.0
20260508030657 95 0 0.0 0.0 0.00 0.00 0.00 50 1005.0
20260508025132 95 0 0.0 0.0 0.00 0.00 0.00 50 1005.0
20260508023607 95 0 0.0 0.0 0.00 0.00 0.00 51 1005.0
20260508022043 94 0 0.0 0.0 0.00 0.00 0.00 52 1005.0
20260508020519 95 0 0.0 0.0 0.00 0.00 0.00 52 1005.0
20260508014954 94 0 0.0 0.0 0.00 0.00 0.00 50 1005.0
20260508013807 94 0 0.0 0.0 0.00 0.00 0.00 49 1005.0
20260508012242 93 0 0.0 0.0 0.00 0.00 0.00 50 1005.0
20260508010718 93 0 0.0 0.0 0.00 0.00 0.00 49 1005.0
20260508005153 93 0 0.0 0.0 0.00 0.00 0.00 50 1005.0
20260508003628 92 0 0.0 0.0 0.00 0.00 0.00 50 1004.0
20260508002104 93 0 0.0 0.0 0.00 0.00 0.00 49 1004.0
20260508000539 93 0 0.0 0.0 0.00 0.00 0.00 48 1004.0
20260507235014 92 0 0.0 0.0 0.00 0.00 0.00 48 1004.0
20260507233449 92 0 0.0 0.0 0.00 0.00 0.00 48 1004.0
20260507231925 92 0 0.0 0.0 0.00 0.00 0.00 48 1004.0
20260507230359 92 0 0.0 0.0 0.00 0.00 0.00 47 1004.0
20260507224834 92 0 0.0 0.0 0.00 0.00 0.00 47 1004.0
20260507223309 92 0 0.0 0.0 0.00 0.00 0.00 46 1003.0
20260507221745 92 0 0.0 0.0 0.00 0.00 0.00 46 1003.0
20260507220220 92 0 0.0 0.0 0.00 0.00 0.00 46 1003.0
20260507214801 91 0 0.0 0.0 0.00 0.00 0.00 45 1003.0
20260507213237 91 0 0.0 0.0 0.00 0.00 0.00 46 1003.0
20260507211712 91 0 0.0 0.0 0.00 0.00 0.00 45 1003.0
20260507210147 91 0 0.0 0.0 0.00 0.00 0.00 44 1003.0
20260507204621 91 0 0.0 0.0 0.00 0.00 0.00 43 1002.0
20260507203056 91 0 0.0 0.0 0.00 0.00 0.00 42 1002.0
20260507201532 90 0 0.0 0.0 0.00 0.00 0.00 42 1002.0
20260507200007 90 0 0.0 0.0 0.00 0.00 0.00 41 1002.0
20260507194442 90 0 0.0 0.0 0.00 0.00 0.00 41 1002.0
20260507192917 89 0 0.0 0.0 0.00 0.00 0.00 40 1003.0
20260507191352 84 0 0.0 0.0 0.00 0.00 0.00 44 1003.0
20260507185828 85 0 0.0 0.0 0.00 0.00 0.00 44 1003.0
20260507184303 84 0 0.0 0.0 0.00 0.00 0.00 44 1003.0
20260507182739 84 0 0.0 0.0 0.00 0.00 0.00 45 1003.0
20260507181214 86 0 0.0 0.0 0.00 0.00 0.00 42 1003.0
20260507175649 86 0 0.0 0.0 0.00 0.00 0.00 41 1004.0
20260507174124 85 0 0.0 0.0 0.00 0.00 0.00 42 1004.0
20260507172557 87 0 0.0 0.0 0.00 0.00 0.00 40 1004.0
20260507171032 86 0 0.0 0.0 0.00 0.00 0.00 41 1004.0
20260507165508 87 0 0.0 0.0 0.00 0.00 0.00 39 1004.0
20260507163943 86 0 0.0 0.0 0.00 0.00 0.00 40 1004.0
20260507162418 87 0 0.0 0.0 0.00 0.00 0.00 40 1004.0
20260507160854 87 0 0.0 0.0 0.00 0.00 0.00 41 1005.0
20260507155330 88 0 0.0 0.0 0.00 0.00 0.00 39 1005.0
20260507153805 89 0 0.0 0.0 0.00 0.00 0.00 39 1005.0
20260507152241 88 0 0.0 0.0 0.00 0.00 0.00 40 1005.0
20260507150716 88 0 0.0 0.0 0.00 0.00 0.00 42 1004.0
20260507145152 88 0 0.0 0.0 0.00 0.00 0.00 40 1004.0
20260507143627 88 0 0.0 0.0 0.00 0.00 0.00 37 1004.0
20260507142103 88 0 0.0 0.0 0.00 0.00 0.00 37 1004.0
20260507140538 88 0 0.0 0.0 0.00 0.00 0.00 38 1004.0
20260507135014 87 0 0.0 0.0 0.00 0.00 0.00 40 1003.0
20260507133450 89 0 0.0 0.0 0.00 0.00 0.00 36 1003.0
20260507131925 89 0 0.0 0.0 0.00 0.00 0.00 35 1002.0
20260507130400 90 0 0.0 0.0 0.00 0.00 0.00 33 1002.0
20260507124836 89 0 0.0 0.0 0.00 0.00 0.00 31 1002.0
20260507123311 92 0 0.0 0.0 0.00 0.00 0.00 28 1002.0
20260507121746 91 0 0.0 0.0 0.00 0.00 0.00 28 1002.0
20260507120222 92 0 0.0 0.0 0.00 0.00 0.00 27 1002.0
20260507114657 93 0 0.0 0.0 0.00 0.00 0.00 26 1002.0
20260507113132 93 0 0.0 0.0 0.00 0.00 0.00 28 1001.0
20260507111607 96 0 0.0 0.0 0.00 0.00 0.00 33 1001.0
20260507110042 99 0 0.0 0.0 0.00 0.00 0.00 45 1000.0
20260507104518 104 0 0.0 0.0 0.00 0.00 0.00 41 1000.0
20260507102953 103 0 0.0 0.0 0.00 0.00 0.00 41 1000.0
20260507101428 104 0 0.0 0.0 0.00 0.00 0.00 40 1000.0
20260507095903 104 0 0.0 0.0 0.00 0.00 0.00 41 999.0
20260507094339 104 0 0.0 0.0 0.00 0.00 0.00 41 1000.0
20260507092814 104 0 0.0 0.0 0.00 0.00 0.00 41 999.0
20260507091249 103 0 0.0 0.0 0.00 0.00 0.00 41 999.0
20260507085725 103 0 0.0 0.0 0.00 0.00 0.00 41 999.0
20260507084200 102 0 0.0 0.0 0.00 0.00 0.00 42 999.0
20260507082635 102 0 0.0 0.0 0.00 0.00 0.00 42 999.0
20260507081111 102 0 0.0 0.0 0.00 0.00 0.00 43 999.0
20260507075546 102 0 0.0 0.0 0.00 0.00 0.00 43 1000.0
20260507074022 101 0 0.0 0.0 0.00 0.00 0.00 43 1000.0
20260507072456 101 0 0.0 0.0 0.00 0.00 0.00 44 1000.0
20260507070932 101 0 0.0 0.0 0.00 0.00 0.00 44 1000.0
20260507065407 101 0 0.0 0.0 0.00 0.00 0.00 44 1000.0